Weather History for Porterville, CA

Change the Weather History Date:

Friday, February 8, 2013

  Actual Average Record
Temperature  
Mean Temperature 44 °F -  
Max Temperature 48 °F 62 °F 79 °F (1963)
Min Temperature 39 °F 39 °F 25 °F (1989)
Degree Days  
Heating Degree Days 22    
Moisture  
Dew Point 39 °F    
Average Humidity 81    
Maximum Humidity 93    
Minimum Humidity 71    
Precipitation  
Precipitation 0.17 in - - ()
Sea Level Pressure  
Sea Level Pressure 29.96 in    
Wind  
Wind Speed 6 mph (North)    
Max Wind Speed 12 mph    
Max Gust Speed 20 mph    
Visibility 10 miles    
Events      
Averages and records for this station are not official NWS values.
T = Trace of Precipitation, MM = Missing Value Source: NWS Daily Summary

Daily Weather History Graph

Daily Weather History Graph

Search for Another Location

Airport:

Trip Planner

Search our weather history database for the weather conditions in past years. The results will help you decide how hot, cold, wet, or windy it might be!

Date:

Astronomy

Feb. 08, 2013 Rise Set
Actual Time 6:50 AM PST 5:30 PM PST
Civil Twilight 6:23 AM PST 5:57 PM PST
Nautical Twilight 5:53 AM PST 6:27 PM PST
Astronomical Twilight 5:23 AM PST 6:57 PM PST
Moon 5:21 AM PST (2/8) 4:10 PM PST (2/8)
Length of Visible Light 11h 33m
Length of Day
10h 40m
Waning Crescent, 3% of the Moon is Illuminated
Feb 8
Waning Crescent
Feb 9
New
Feb 17
First Quarter
Feb 25
Full
Mar 4
Last Quarter

Hourly Weather History & Observations

Time (PST) Temp. Windchill Dew Point Humidity Pressure Visibility Wind Dir Wind Speed Gust Speed Precip Events Conditions
12:15 AM 44.6 °F 38.8 °F 41.0 °F 87% 30.01 in 9.0 mi WNW 11.5 mph 19.6 mph 0.03 in   Overcast
12:35 AM 42.8 °F 38.6 °F 39.2 °F 87% 30.01 in 10.0 mi NNW 6.9 mph - 0.06 in   Mostly Cloudy
12:55 AM 42.8 °F 40.1 °F 39.2 °F 87% 30.00 in 10.0 mi North 4.6 mph - 0.12 in   Overcast
1:35 AM 42.8 °F 40.1 °F 39.2 °F 87% 30.00 in 10.0 mi SE 4.6 mph - 0.05 in   Overcast
5:15 AM 39.2 °F 35.0 °F 37.4 °F 93% 29.97 in 10.0 mi South 5.8 mph - N/A   Overcast
9:55 AM 42.8 °F - 37.4 °F 81% 29.98 in 10.0 mi Calm Calm - N/A   Overcast
10:15 AM 44.6 °F - 39.2 °F 81% 29.98 in 10.0 mi Calm Calm - N/A   Overcast
10:35 AM 44.6 °F - 37.4 °F 76% 29.98 in 10.0 mi Calm Calm - N/A   Overcast
10:55 AM 44.6 °F 43.1 °F 39.2 °F 81% 29.98 in 10.0 mi North 3.5 mph - N/A   Overcast
11:15 AM 44.6 °F 39.7 °F 39.2 °F 81% 29.98 in 10.0 mi NNW 9.2 mph - N/A   Overcast
11:55 AM 44.6 °F 39.7 °F 39.2 °F 81% 29.96 in 10.0 mi NNW 9.2 mph - N/A   Overcast
12:15 PM 44.6 °F 40.7 °F 37.4 °F 76% 29.96 in 10.0 mi NNW 6.9 mph - N/A   Overcast
12:55 PM 46.4 °F 44.3 °F 37.4 °F 71% 29.94 in 10.0 mi North 4.6 mph - N/A   Overcast
1:35 PM 46.4 °F 42.4 °F 39.2 °F 76% 29.94 in 10.0 mi NNW 8.1 mph - N/A   Overcast
1:55 PM 46.4 °F 42.9 °F 39.2 °F 76% 29.94 in 10.0 mi North 6.9 mph - N/A   Mostly Cloudy
2:15 PM 48.2 °F - 39.2 °F 71% 29.93 in 10.0 mi NNW 10.4 mph - N/A   Overcast
2:35 PM 46.4 °F 42.4 °F 37.4 °F 71% 29.93 in 10.0 mi NNW 8.1 mph - N/A   Overcast
2:55 PM 48.2 °F - 39.2 °F 71% 29.93 in 10.0 mi NNW 10.4 mph - N/A   Mostly Cloudy
3:15 PM 44.6 °F 38.8 °F 37.4 °F 76% 29.93 in 10.0 mi NNE 11.5 mph - N/A   Overcast
3:35 PM 46.4 °F 41.9 °F 37.4 °F 71% 29.93 in 10.0 mi NNE 9.2 mph - N/A   Mostly Cloudy
3:55 PM 44.6 °F 40.7 °F 37.4 °F 76% 29.93 in 10.0 mi North 6.9 mph - N/A   Overcast
4:35 PM 44.6 °F 41.4 °F 37.4 °F 76% 29.94 in 10.0 mi North 5.8 mph - N/A   Overcast
4:55 PM 44.6 °F 42.2 °F 39.2 °F 81% 29.94 in 10.0 mi NNE 4.6 mph - N/A   Overcast
5:15 PM 44.6 °F 42.2 °F 39.2 °F 81% 29.94 in 10.0 mi North 4.6 mph - N/A   Mostly Cloudy
5:35 PM 44.6 °F - 39.2 °F 81% 29.94 in 10.0 mi Calm Calm - N/A   Mostly Cloudy
6:15 PM 42.8 °F - 39.2 °F 87% 29.94 in 10.0 mi Calm Calm - N/A   Overcast
7:15 PM 42.8 °F - 39.2 °F 87% 29.96 in 10.0 mi Calm Calm - N/A   Overcast
7:55 PM 42.8 °F 41.1 °F 39.2 °F 87% 29.96 in 10.0 mi SE 3.5 mph - N/A   Overcast
8:55 PM 42.8 °F 40.1 °F 39.2 °F 87% 29.96 in 10.0 mi SSE 4.6 mph - N/A   Overcast
9:15 PM 42.8 °F 40.1 °F 39.2 °F 87% 29.97 in 10.0 mi South 4.6 mph - N/A   Overcast
9:55 PM 42.8 °F 40.1 °F 39.2 °F 87% 29.98 in 10.0 mi ESE 4.6 mph - N/A   Overcast
10:35 PM 41.0 °F 38.0 °F 37.4 °F 87% 29.98 in 10.0 mi SE 4.6 mph - N/A   Overcast
10:55 PM 41.0 °F 38.0 °F 37.4 °F 87% 29.98 in 10.0 mi SSE 4.6 mph - N/A   Overcast
11:15 PM 41.0 °F 39.0 °F 37.4 °F 87% 29.99 in 10.0 mi SE 3.5 mph - N/A   Overcast